This demonstration page uses our WeatherBlox Daily Observations layout. Learn more.

Left ArrowRight Arrow

38.20091, -84.87328

Hourly Observations for January 14, 2020

Temp ( °F °C ) Dew Point ( °F °C ) Humidity (%) Winds ( mph kmh ) Pressure ( in mb ) Visibility ( mi km ) Precip ( " mm )
12:53 am 00:53 Mostly Cloudy 43 6.1 39 3.9 86 86 Calm 30.19 1022 10 16 0.00 0.00
1:53 am 01:53 Mostly Clear 42 5.6 38 3.3 85 85 Calm 30.16 1021 10 16 0.00 0.00
2:51 am 02:51 Cloudy 45 7 41 5 87 87 ESE 3 6 30.14 1021 10 16 0.00 0.00
2:53 am 02:53 Cloudy 45 7.2 41 5 86 86 Calm 30.13 1020 10 16 0.00 0.00
3:07 am 03:07 Cloudy with Light Rain 45 7.2 41 5 86 86 Calm 30.15 1021 5 8 0.00 0.00
3:22 am 03:22 Cloudy with Mist and Fog 44 6.7 42 5.6 93 93 SE 3 6 30.14 1021 3 4 0.01 0.25
3:31 am 03:31 Cloudy with Mist and Fog 44 6.7 42 5.6 93 93 SE 5 7 30.12 1020 3 5 0.01 0.25
3:35 am 03:35 Cloudy with Mist and Fog 44 6.7 42 5.6 93 93 SE 3 6 30.12 1020 3 4 0.01 0.25
3:53 am 03:53 Cloudy with Mist and Fog 44 6.7 43 6.1 96 96 Calm 30.11 1020 3 5 0.01 0.25
4:05 am 04:05 Cloudy with Mist and Fog 45 7.2 44 6.7 97 97 S 3 6 30.12 1020 3 5 0.00 0.00
4:18 am 04:18 Cloudy with Mist and Fog 46 7.8 45 7.2 96 96 S 3 6 30.11 1020 3 4 0.00 0.00
4:24 am 04:24 Cloudy with Mist and Fog 46 7.8 45 7.2 96 96 S 3 6 30.11 1020 3 5 0.00 0.00
4:37 am 04:37 Cloudy with Mist and Fog 46 7.8 45 7.2 96 96 S 3 6 30.11 1020 4 6 0.00 0.00
4:53 am 04:53 Cloudy with Mist and Fog 47 8.3 46 7.8 97 97 Calm 30.09 1019 4 6 0.00 0.00
5:53 am 05:53 Cloudy with Mist and Fog 49 9.4 48 8.9 97 97 S 5 7 30.09 1019 4 6 0.00 0.00
6:53 am 06:53 Cloudy with Mist and Fog 51 10.6 50 10 96 96 SW 7 11 30.11 1020 6 10 0.00 0.00
7:14 am 07:14 Cloudy 53 11.7 51 10.6 93 93 W 7 11 30.11 1020 10 16 0.00 0.00
7:53 am 07:53 Cloudy 53 11.7 50 10 89 89 W 9 15 30.13 1020 10 16 0.00 0.00
8:53 am 08:53 Cloudy 51 10.6 48 8.9 89 89 W 12 19 30.16 1021 10 16 0.00 0.00
9:22 am 09:22 Cloudy 51 10.6 47 8.3 86 86 W 7 11 30.17 1022 10 16 0.00 0.00
9:53 am 09:53 Mostly Cloudy 51 10.6 46 7.8 83 83 W 8 13 30.18 1022 10 16 0.00 0.00
10:03 am 10:03 Partly Cloudy 51 10.6 47 8.3 86 86 VRB 7 11 30.19 1022 10 16 0.00 0.00
10:14 am 10:14 Mostly Cloudy 51 10.6 46 7.8 83 83 W 7 11 30.19 1022 10 16 0.00 0.00
10:53 am 10:53 Mostly Cloudy 52 11.1 45 7.2 77 77 W 8 13 30.19 1022 10 16 0.00 0.00
11:53 am 11:53 Cloudy 52 11.1 45 7.2 77 77 W 5 7 30.20 1023 10 16 0.00 0.00
12:01 pm 12:01 Cloudy 52 11.1 44 6.7 75 75 W 8 13 30.21 1023 10 16 0.00 0.00
12:28 pm 12:28 Cloudy 52 11.1 45 7.2 77 77 WSW 8 13 30.20 1023 10 16 0.00 0.00
12:53 pm 12:53 Cloudy 53 11.7 45 7.2 74 74 W 5 7 30.18 1022 10 16 0.00 0.00
1:14 pm 13:14 Mostly Cloudy 52 11.1 44 6.7 75 75 W 7 11 30.18 1022 10 16 0.00 0.00
1:34 pm 13:34 Mostly Sunny 53 11.7 45 7.2 74 74 WSW 5 7 30.17 1022 10 16 0.00 0.00
1:53 pm 13:53 Mostly Cloudy 54 12.2 45 7.2 72 72 VRB 7 11 30.17 1022 10 16 0.00 0.00
2:05 pm 14:05 Partly Cloudy 54 12.2 46 7.8 75 75 SW 6 9 30.16 1021 10 16 0.00 0.00
2:53 pm 14:53 Sunny 56 13.3 46 7.8 70 70 VRB 6 9 30.15 1021 10 16 0.00 0.00
3:53 pm 15:53 Sunny 56 13.3 45 7.2 67 67 WSW 7 11 30.16 1022 10 16 0.00 0.00
4:53 pm 16:53 Sunny 55 12.8 45 7.2 69 69 W 5 7 30.17 1022 10 16 0.00 0.00
5:53 pm 17:53 Clear 50 10 44 6.7 80 80 Calm 30.17 1022 10 16 0.00 0.00
6:53 pm 18:53 Clear 42 5.6 40 4.4 92 92 Calm 30.19 1022 10 16 0.00 0.00
7:53 pm 19:53 Clear 43 6.1 41 5 93 93 Calm 30.19 1022 10 16 0.00 0.00
8:53 pm 20:53 Clear with Mist and Fog 39 3.9 38 3.3 96 96 Calm 30.19 1022 6 10 0.00 0.00
9:53 pm 21:53 Clear 38 3.3 37 2.8 97 97 Calm 30.19 1023 9 14 0.00 0.00
10:31 pm 22:31 Clear with Mist and Fog 39 3.9 38 3.3 96 96 Calm 30.22 1023 2 3 0.00 0.00
10:51 pm 22:51 Clear with Mist and Fog 39 4 37 3 93 93 Calm 30.22 1023 3 5 0.00 0.00
10:53 pm 22:53 Clear with Mist and Fog 39 3.9 38 3.3 96 96 Calm 30.19 1023 3 5 0.00 0.00
11:21 pm 23:21 Partly Cloudy with Mist and Fog 37 2.8 36 2.2 96 96 Calm 30.21 1023 3 4 0.00 0.00
11:25 pm 23:25 Mostly Cloudy with Mist and Fog 37 2.8 35 1.7 93 93 Calm 30.21 1023 1 2 0.00 0.00
11:32 pm 23:32 Mostly Cloudy with Fog 38 3.3 36 2.2 93 93 Calm 30.21 1023 1 1 0.00 0.00
11:37 pm 23:37 Mostly Cloudy with Mist and Fog 37 2.8 36 2.2 96 96 Calm 30.21 1023 1 2 0.00 0.00
11:39 pm 23:39 Mostly Cloudy with Mist and Fog 37 2.8 36 2.2 96 96 Calm 30.21 1023 3 5 0.00 0.00
11:48 pm 23:48 Mostly Cloudy with Mist and Fog 36 2 36 2 100 100 Calm 30.21 1023 1 2 0.00 0.00
11:53 pm 23:53 Mostly Cloudy with Fog 36 2.2 35 1.7 97 97 Calm 30.19 1022 0 0 0.00 0.00

Powered by AerisWeather